Погода в Новокузнецке

Россия / Кемеровская область (Кузбасс)     53°45′27″N   87°08′09″E
темп.,
°C
ветер,
м/с
пор.,
м/с
влажн.,
%
обл.,
%
осадки,
мм/ч
давл.,
гПа
погр.,
м
15 апреля, чт
чт1501:00+2зюз51297100 0.7 1026565
04:00+1юз2698100 0.4 1026264
07:00+1ю23100100 0.4 102889
10:00+2ю2399100 0.0 1028200
13:00+2ююв1398100 0.0 1028185
16:00+2ююв1399100 0.0 1027180
19:00+2ююв1299100 0.0 102674
22:00+2ю1299100 0.0 102574
16 апреля, пт
пт1601:00+2ю2599100 0.0 1024149
04:00+2ю3898100 0.0 1023256
07:00+2ююз399693 0.0 1022318
10:00+5ююз4109195 0.0 1021415
13:00+8юз4118199 0.0 1020670
16:00+12юз5107029 0.0 1017942
19:00+10юз512782 0.0 1016737
22:00+8ююз4138497 0.0 1015367
17 апреля, сб
сб1701:00+6зсз4987100 0.3 1016528
04:00+2с4982100 0.2 1019590
07:00+1с3877100 0.3 1020530
10:00+3с356491 0.0 1019656
13:00+5с334599 0.0 1018897
16:00+7сз223851 0.0 10161112
19:00+6зсз224170 0.0 1015859
22:00+3сз245698 0.0 1016182
18 апреля, вс
вс1801:00+2з136294 0.0 1017299
04:00+1зюз3782100 0.1 1018274
07:00+1зюз2669100 0.1 1019317
10:00+3зюз2346100 0.0 1020847
13:00+6зюз2439100 0.0 10191492
16:00+7зюз3440100 0.0 10171685
19:00+6ююз2451100 0.0 10151081
22:00+4ююв4984100 0.0 1013472
19 апреля, пн
пн1901:00+3ююв3686100 0.0 1009147
04:00+3юв2686100 0.4 1005169
07:00+6ю41373100 0.5 1001353
10:00+10юз81862100 0.1 9991710
13:00+2з41295100 2.3 1003729
16:00+1зюз5970100 2.7 10081251
19:00+1зюз5862100 2.9 10121419
22:00−1з4866100 0.1 10151056